Time,TemperatureF,DewpointF,PressureIn,WindDirection,WindDirectionDegrees,WindSpeedMPH,WindSpeedGustMPH,Humidity,HourlyPrecipIn,Conditions,Clouds,dailyrainin,SoftwareType,DateUTC
2013-01-30 00:12:00,42.8,41.0,30.36,SW,233,0.0,2.0,94,0.00,,,0.00,weatherlink.com 1.10,2013-01-30 08:12:00,
2013-01-30 00:26:00,42.8,41.0,30.36,ESE,113,0.0,1.0,94,0.00,,,0.00,weatherlink.com 1.10,2013-01-30 08:26:00,
2013-01-30 00:41:00,43.0,41.0,30.36,SSE,167,2.0,3.0,94,0.00,,,0.00,weatherlink.com 1.10,2013-01-30 08:41:00,
2013-01-30 00:56:00,42.7,41.0,30.36,WSW,242,0.0,3.0,94,0.00,,,0.00,weatherlink.com 1.10,2013-01-30 08:56:00,
2013-01-30 01:12:00,42.9,41.0,30.36,WSW,243,0.0,2.0,94,0.00,,,0.00,weatherlink.com 1.10,2013-01-30 09:12:00,
2013-01-30 01:26:00,43.0,41.0,30.36,WSW,243,0.0,0.0,94,0.00,,,0.00,weatherlink.com 1.10,2013-01-30 09:26:00,
2013-01-30 01:57:00,43.0,41.0,30.35,SW,227,0.0,0.0,94,0.00,,,0.00,weatherlink.com 1.10,2013-01-30 09:57:00,
2013-01-30 02:12:00,43.1,42.0,30.35,SW,227,0.0,1.0,94,0.00,,,0.00,weatherlink.com 1.10,2013-01-30 10:12:00,
2013-01-30 02:27:00,42.8,41.0,30.34,East,85,0.0,3.0,94,0.00,,,0.00,weatherlink.com 1.10,2013-01-30 10:27:00,
2013-01-30 02:42:00,43.1,42.0,30.34,East,85,0.0,1.0,94,0.00,,,0.00,weatherlink.com 1.10,2013-01-30 10:42:00,
2013-01-30 02:57:00,43.3,42.0,30.34,East,94,0.0,2.0,93,0.00,,,0.00,weatherlink.com 1.10,2013-01-30 10:57:00,
2013-01-30 03:12:00,43.1,41.0,30.33,East,94,0.0,2.0,93,0.00,,,0.00,weatherlink.com 1.10,2013-01-30 11:12:00,
2013-01-30 03:27:00,42.9,41.0,30.33,East,94,0.0,1.0,93,0.00,,,0.00,weatherlink.com 1.10,2013-01-30 11:27:00,
2013-01-30 03:42:00,43.0,41.0,30.32,East,94,0.0,2.0,93,0.00,,,0.00,weatherlink.com 1.10,2013-01-30 11:42:00,
2013-01-30 03:57:00,43.2,41.0,30.32,SSE,152,0.0,2.0,92,0.00,,,0.00,weatherlink.com 1.10,2013-01-30 11:57:00,
2013-01-30 04:12:00,42.6,41.0,30.32,SSE,152,0.0,2.0,93,0.00,,,0.00,weatherlink.com 1.10,2013-01-30 12:12:00,
2013-01-30 04:27:00,43.2,41.0,30.32,SSE,152,0.0,2.0,93,0.00,,,0.00,weatherlink.com 1.10,2013-01-30 12:27:00,
2013-01-30 04:42:00,43.6,42.0,30.32,SSE,152,0.0,1.0,93,0.00,,,0.00,weatherlink.com 1.10,2013-01-30 12:42:00,
2013-01-30 04:57:00,44.2,42.0,30.32,SSE,152,0.0,0.0,93,0.00,,,0.00,weatherlink.com 1.10,2013-01-30 12:57:00,
2013-01-30 05:12:00,44.4,43.0,30.32,SSE,152,0.0,0.0,93,0.00,,,0.00,weatherlink.com 1.10,2013-01-30 13:12:00,
2013-01-30 05:27:00,44.4,42.0,30.32,SSE,152,0.0,1.0,92,0.00,,,0.00,weatherlink.com 1.10,2013-01-30 13:27:00,
2013-01-30 05:42:00,44.7,43.0,30.32,SSE,152,0.0,0.0,92,0.00,,,0.00,weatherlink.com 1.10,2013-01-30 13:42:00,
2013-01-30 05:57:00,44.7,42.0,30.32,SSE,152,0.0,1.0,91,0.00,,,0.00,weatherlink.com 1.10,2013-01-30 13:57:00,
2013-01-30 06:12:00,44.9,43.0,30.32,SSE,152,0.0,1.0,91,0.00,,,0.00,weatherlink.com 1.10,2013-01-30 14:12:00,
2013-01-30 06:27:00,44.5,42.0,30.32,SSE,152,0.0,2.0,91,0.00,,,0.00,weatherlink.com 1.10,2013-01-30 14:27:00,
2013-01-30 06:42:00,44.4,42.0,30.32,SSE,152,0.0,1.0,90,0.00,,,0.00,weatherlink.com 1.10,2013-01-30 14:42:00,
2013-01-30 06:57:00,44.0,41.0,30.33,SSE,152,0.0,0.0,90,0.00,,,0.00,weatherlink.com 1.10,2013-01-30 14:57:00,
2013-01-30 07:12:00,43.0,40.0,30.33,SSE,152,0.0,2.0,90,0.00,,,0.00,weatherlink.com 1.10,2013-01-30 15:12:00,
2013-01-30 07:27:00,42.7,40.0,30.33,SSE,152,0.0,1.0,91,0.00,,,0.00,weatherlink.com 1.10,2013-01-30 15:27:00,
2013-01-30 07:42:00,42.4,40.0,30.34,SSE,152,0.0,2.0,91,0.00,,,0.00,weatherlink.com 1.10,2013-01-30 15:42:00,
2013-01-30 07:57:00,42.4,40.0,30.34,SSE,152,0.0,1.0,92,0.00,,,0.00,weatherlink.com 1.10,2013-01-30 15:57:00,
2013-01-30 08:12:00,41.9,40.0,30.35,ESE,109,1.0,3.0,92,0.00,,,0.00,weatherlink.com 1.10,2013-01-30 16:12:00,
2013-01-30 08:28:00,42.5,41.0,30.35,East,90,0.0,3.0,93,0.00,,,0.00,weatherlink.com 1.10,2013-01-30 16:28:00,
2013-01-30 08:42:00,43.4,42.0,30.35,ESE,112,0.0,2.0,93,0.00,,,0.00,weatherlink.com 1.10,2013-01-30 16:42:00,
2013-01-30 08:58:00,46.0,44.0,30.35,ESE,112,0.0,2.0,93,0.00,,,0.00,weatherlink.com 1.10,2013-01-30 16:58:00,
2013-01-30 09:12:00,49.7,46.0,30.35,West,260,0.0,3.0,87,0.00,,,0.00,weatherlink.com 1.10,2013-01-30 17:12:00,
2013-01-30 09:27:00,50.3,46.0,30.35,West,260,0.0,2.0,84,0.00,,,0.00,weatherlink.com 1.10,2013-01-30 17:27:00,
2013-01-30 09:43:00,51.7,47.0,30.36,West,261,0.0,2.0,83,0.00,,,0.00,weatherlink.com 1.10,2013-01-30 17:43:00,
2013-01-30 09:57:00,51.8,47.0,30.36,West,261,0.0,1.0,83,0.00,,,0.00,weatherlink.com 1.10,2013-01-30 17:57:00,
2013-01-30 10:12:00,52.3,47.0,30.36,WSW,258,1.0,1.0,82,0.00,,,0.00,weatherlink.com 1.10,2013-01-30 18:12:00,
2013-01-30 10:27:00,53.2,46.0,30.37,WSW,258,1.0,2.0,77,0.00,,,0.00,weatherlink.com 1.10,2013-01-30 18:27:00,
2013-01-30 10:43:00,55.0,46.0,30.36,WSW,258,0.0,2.0,71,0.00,,,0.00,weatherlink.com 1.10,2013-01-30 18:43:00,
2013-01-30 10:58:00,57.3,48.0,30.37,WSW,258,0.0,1.0,70,0.00,,,0.00,weatherlink.com 1.10,2013-01-30 18:58:00,
2013-01-30 11:13:00,57.7,48.0,30.36,WSW,258,1.0,2.0,71,0.00,,,0.00,weatherlink.com 1.10,2013-01-30 19:13:00,
2013-01-30 11:28:00,58.0,49.0,30.35,WSW,258,0.0,1.0,71,0.00,,,0.00,weatherlink.com 1.10,2013-01-30 19:28:00,
2013-01-30 11:43:00,58.2,49.0,30.35,West,262,0.0,2.0,72,0.00,,,0.00,weatherlink.com 1.10,2013-01-30 19:43:00,
2013-01-30 11:58:00,59.2,48.0,30.34,East,91,0.0,3.0,66,0.00,,,0.00,weatherlink.com 1.10,2013-01-30 19:58:00,
2013-01-30 12:13:00,60.2,49.0,30.34,West,263,0.0,4.0,67,0.00,,,0.00,weatherlink.com 1.10,2013-01-30 20:13:00,
2013-01-30 12:28:00,61.1,48.0,30.34,South,170,2.0,4.0,62,0.00,,,0.00,weatherlink.com 1.10,2013-01-30 20:28:00,
2013-01-30 12:43:00,61.2,49.0,30.33,South,189,1.0,4.0,64,0.00,,,0.00,weatherlink.com 1.10,2013-01-30 20:43:00,
2013-01-30 12:58:00,60.2,49.0,30.32,South,190,0.0,2.0,66,0.00,,,0.00,weatherlink.com 1.10,2013-01-30 20:58:00,
2013-01-30 13:13:00,60.8,50.0,30.32,South,190,0.0,3.0,67,0.00,,,0.00,weatherlink.com 1.10,2013-01-30 21:13:00,
2013-01-30 13:28:00,63.2,50.0,30.31,South,190,1.0,2.0,63,0.00,,,0.00,weatherlink.com 1.10,2013-01-30 21:28:00,
2013-01-30 13:43:00,61.2,50.0,30.30,SSE,161,0.0,2.0,68,0.00,,,0.00,weatherlink.com 1.10,2013-01-30 21:43:00,
2013-01-30 13:58:00,63.6,49.0,30.30,ESE,114,0.0,3.0,59,0.00,,,0.00,weatherlink.com 1.10,2013-01-30 21:58:00,
2013-01-30 14:13:00,61.9,50.0,30.30,SW,220,0.0,3.0,65,0.00,,,0.00,weatherlink.com 1.10,2013-01-30 22:13:00,
2013-01-30 14:28:00,59.7,50.0,30.30,West,275,0.0,3.0,70,0.00,,,0.00,weatherlink.com 1.10,2013-01-30 22:28:00,
2013-01-30 14:43:00,59.3,50.0,30.29,West,275,0.0,2.0,70,0.00,,,0.00,weatherlink.com 1.10,2013-01-30 22:43:00,
2013-01-30 14:58:00,58.9,50.0,30.29,West,275,2.0,2.0,73,0.00,,,0.00,weatherlink.com 1.10,2013-01-30 22:58:00,
2013-01-30 15:13:00,58.0,49.0,30.29,West,276,1.0,2.0,71,0.00,,,0.00,weatherlink.com 1.10,2013-01-30 23:13:00,
2013-01-30 15:29:00,57.9,49.0,30.29,West,275,1.0,2.0,71,0.00,,,0.00,weatherlink.com 1.10,2013-01-30 23:29:00,
2013-01-30 15:44:00,57.0,48.0,30.29,West,275,0.0,2.0,72,0.00,,,0.00,weatherlink.com 1.10,2013-01-30 23:44:00,
2013-01-30 15:58:00,56.9,48.0,30.29,West,275,0.0,2.0,71,0.00,,,0.00,weatherlink.com 1.10,2013-01-30 23:58:00,
2013-01-30 16:14:00,56.3,47.0,30.29,West,275,0.0,2.0,72,0.00,,,0.00,weatherlink.com 1.10,2013-01-31 00:14:00,
2013-01-30 16:28:00,56.0,47.0,30.29,West,275,0.0,2.0,73,0.00,,,0.00,weatherlink.com 1.10,2013-01-31 00:28:00,
2013-01-30 16:43:00,55.5,48.0,30.29,West,275,0.0,2.0,75,0.00,,,0.00,weatherlink.com 1.10,2013-01-31 00:43:00,
2013-01-30 16:59:00,54.8,48.0,30.29,West,275,0.0,1.0,77,0.00,,,0.00,weatherlink.com 1.10,2013-01-31 00:59:00,
2013-01-30 17:14:00,53.9,47.0,30.30,West,275,0.0,1.0,78,0.00,,,0.00,weatherlink.com 1.10,2013-01-31 01:14:00,
2013-01-30 17:28:00,53.5,48.0,30.30,West,275,0.0,1.0,81,0.00,,,0.00,weatherlink.com 1.10,2013-01-31 01:28:00,
2013-01-30 17:43:00,52.8,47.0,30.30,West,275,0.0,1.0,82,0.00,,,0.00,weatherlink.com 1.10,2013-01-31 01:43:00,
2013-01-30 17:59:00,52.0,47.0,30.30,West,275,0.0,1.0,83,0.00,,,0.00,weatherlink.com 1.10,2013-01-31 01:59:00,
2013-01-30 18:13:00,50.9,46.0,30.30,West,275,0.0,0.0,83,0.00,,,0.00,weatherlink.com 1.10,2013-01-31 02:13:00,
2013-01-30 18:29:00,49.9,45.0,30.30,West,275,0.0,0.0,84,0.00,,,0.00,weatherlink.com 1.10,2013-01-31 02:29:00,
2013-01-30 18:43:00,49.0,45.0,30.30,West,275,0.0,0.0,85,0.00,,,0.00,weatherlink.com 1.10,2013-01-31 02:43:00,
2013-01-30 18:58:00,48.1,44.0,30.31,West,275,0.0,0.0,86,0.00,,,0.00,weatherlink.com 1.10,2013-01-31 02:58:00,
2013-01-30 19:14:00,47.4,44.0,30.30,West,275,0.0,0.0,88,0.00,,,0.00,weatherlink.com 1.10,2013-01-31 03:14:00,
2013-01-30 19:28:00,46.9,44.0,30.30,West,275,0.0,0.0,88,0.00,,,0.00,weatherlink.com 1.10,2013-01-31 03:28:00,
2013-01-30 19:44:00,46.3,43.0,30.30,West,275,0.0,0.0,89,0.00,,,0.00,weatherlink.com 1.10,2013-01-31 03:44:00,
2013-01-30 19:59:00,45.8,43.0,30.30,West,275,0.0,0.0,89,0.00,,,0.00,weatherlink.com 1.10,2013-01-31 03:59:00,
2013-01-30 20:14:00,45.4,42.0,30.30,West,275,0.0,0.0,89,0.00,,,0.00,weatherlink.com 1.10,2013-01-31 04:14:00,
2013-01-30 20:29:00,45.2,43.0,30.29,West,275,0.0,0.0,90,0.00,,,0.00,weatherlink.com 1.10,2013-01-31 04:29:00,
2013-01-30 20:44:00,45.3,43.0,30.29,West,275,0.0,0.0,91,0.00,,,0.00,weatherlink.com 1.10,2013-01-31 04:44:00,
2013-01-30 20:59:00,45.3,43.0,30.30,West,275,0.0,0.0,91,0.00,,,0.00,weatherlink.com 1.10,2013-01-31 04:59:00,
2013-01-30 21:14:00,45.2,43.0,30.30,West,275,0.0,0.0,91,0.00,,,0.00,weatherlink.com 1.10,2013-01-31 05:14:00,
2013-01-30 21:29:00,44.9,42.0,30.31,West,275,0.0,0.0,90,0.00,,,0.00,weatherlink.com 1.10,2013-01-31 05:29:00,
2013-01-30 21:44:00,44.3,42.0,30.31,West,275,0.0,0.0,91,0.00,,,0.00,weatherlink.com 1.10,2013-01-31 05:44:00,
2013-01-30 21:59:00,43.9,42.0,30.31,West,275,0.0,0.0,91,0.00,,,0.00,weatherlink.com 1.10,2013-01-31 05:59:00,
2013-01-30 22:13:00,43.4,41.0,30.30,West,275,0.0,0.0,92,0.00,,,0.00,weatherlink.com 1.10,2013-01-31 06:13:00,
2013-01-30 22:28:00,43.5,42.0,30.30,West,275,0.0,0.0,93,0.00,,,0.00,weatherlink.com 1.10,2013-01-31 06:28:00,
2013-01-30 22:44:00,43.9,42.0,30.30,West,275,0.0,0.0,93,0.00,,,0.00,weatherlink.com 1.10,2013-01-31 06:44:00,
2013-01-30 22:59:00,44.5,43.0,30.30,West,275,0.0,1.0,94,0.00,,,0.00,weatherlink.com 1.10,2013-01-31 06:59:00,
2013-01-30 23:13:00,44.6,43.0,30.30,West,275,0.0,1.0,94,0.00,,,0.00,weatherlink.com 1.10,2013-01-31 07:13:00,
2013-01-30 23:28:00,44.4,43.0,30.31,West,275,0.0,1.0,93,0.00,,,0.00,weatherlink.com 1.10,2013-01-31 07:28:00,
2013-01-30 23:44:00,43.8,42.0,30.31,West,275,0.0,0.0,93,0.00,,,0.00,weatherlink.com 1.10,2013-01-31 07:44:00,
2013-01-30 23:59:00,43.4,42.0,30.31,West,275,0.0,0.0,94,0.00,,,0.00,weatherlink.com 1.10,2013-01-31 07:59:00,